Temperature
16 16 16 15 16 16 16 15 15 15 15 15 15 15 15 15 15 15 15 15 15 15 15 15 15 15 15 15 15 15 15 15 15 15 15 15 15 16 15 15 15 16 16
16 15 15 15 15 15 15 15 15 15 15 15 15 15 15 15 15 15 15 15 15 15 15 15 15 15 15 15 15 15 15 15 15 15 15 15 15 15 15 15 15 15 15
15 15 15 15 15 15 15 15 15 15 15 15 15 15 15 15 15 15 15 15 14 14 14 14 14 14 14 14 14 14 14 14 14 14 14 15 14 15 15 15 15 15 15
15 15 15 15 15 15 15 15 15 15 15 15 15 15 15 14 14 14 14 14 14 14 14 14 14 14 14 14 14 14 14 14 14 14 14 14 14 14 14 14 15 15 15
15 15 15 15 15 15 15 15 14 14 15 15 14 14 14 14 14 14 14 14 14 14 14 14 14 14 14 14 14 13 13 13 14 14 14 14 14 14 14 14 14 14 14
15 15 15 15 14 14 14 14 14 14 14 14 14 14 14 14 14 14 14 14 14 14 13 13 13 13 13 13 13 13 13 13 13 13 13 14 14 14 14 14 14 14 14
15 15 14 14 14 14 14 14 14 14 14 14 14 14 14 14 14 14 14 13 13 13 13 13 13 13 13 13 13 13 13 13 13 13 13 13 14 14 14 14 14 14 14
14 14 14 14 14 14 14 14 14 14 14 14 14 14 13 13 13 13 13 13 13 13 13 13 13 13 13 13 13 13 13 13 13 13 13 13 13 13 13 13 13 13 13
14 14 14 14 14 14 14 13 13 13 13 13 13 13 13 13 13 13 13 13 13 13 13 13 13 13 13 13 13 13 13 13 13 13 13 13 13 13 13 13 13 13 13
14 14 14 13 13 13 13 13 13 13 13 13 13 13 13 13 13 12 12 13 13 13 13 13 12 13 13 13 13 12 12 12 12 13 13 13 13 13 13 13 13 13 13
13 13 13 13 13 13 13 13 13 13 13 13 13 13 13 13 13 12 12 12 12 12 12 12 12 12 12 13 12 12 12 12 12 12 13 13 13 13 13 13 13 13 13
13 13 13 13 13 13 13 13 12 12 12 12 12 12 12 12 12 12 12 12 12 12 12 12 12 12 12 12 12 12 12 12 12 12 12 12 12 12 12 13 13 13 13
13 13 13 13 12 12 12 12 12 12 12 12 12 12 12 12 12 12 12 12 12 12 12 12 12 12 12 12 12 12 12 12 12 12 12 12 12 12 12 12 12 12 12
13 13 12 12 12 12 12 12 12 12 12 12 12 12 12 12 12 12 12 12 11 11 11 12 12 12 12 12 12 12 12 12 12 12 12 12 12 12 12 12 12 12 12
13 12 12 12 12 12 12 12 12 12 12 12 12 12 12 12 11 11 11 11 11 11 11 11 11 12 11 12 12 12 12 12 12 12 12 12 12 12 12 12 12 12 12
12 12 12 12 12 12 11 11 11 11 11 11 11 11 11 11 11 11 11 11 11 11 11 11 11 11 11 11 11 11 11 11 11 11 11 11 11 11 11 11 11 11 11
12 12 12 12 12 11 11 11 11 11 11 11 11 11 11 11 11 11 11 11 11 11 11 11 11 11 11 11 11 11 11 11 11 11 11 11 11 11 11 11 11 11 11
12 12 12 12 11 11 11 11 11 11 11 11 11 11 11 11 11 10 10 10 10 10 10 10 10 10 10 10 10 10 10 10 10 10 10 10 11 11 11 11 11 11 11
12 12 12 11 11 11 11 11 11 10 10 10 10 10 10 10 10 10 10 10 10 10 10 10 10 10 10 10 10 10 10 10 10 10 10 10 10 10 10 10 10 10 10
12 12 11 11 11 11 11 11 10 10 10 10 10 10 10 10 10 10 10 10 10 9 9 9 9 9 10 10 10 10 10 10 10 10 10 10 10 10 10 10 10 10 10
12 11 11 11 11 11 11 10 10 10 10 10 10 10 10 9 9 9 9 9 9 9 9 9 9 9 9 9 9 9 9 9 9 9 10 10 10 10 10 10 10 10 10
11 11 11 11 11 10 10 10 10 10 10 10 9 9 9 9 9 9 9 9 9 9 9 9 9 8 9 9 9 9 9 9 9 9 9 9 9 10 10 10 10 9 9
11 11 10 10 10 10 10 10 9 9 9 9 9 9 9 9 9 9 9 9 9 9 8 8 8 8 8 8 8 8 8 9 9 9 9 9 9 9 9 9 9 9 9
11 10 10 10 10 10 9 9 9 9 9 9 9 9 9 8 8 8 8 8 8 8 8 8 8 8 8 8 8 8 8 8 8 8 8 8 9 9 9 9 9 9 9
10 10 10 10 9 9 9 9 9 9 9 9 8 8 8 8 8 8 8 8 8 8 8 8 8 8 8 8 8 8 8 8 8 8 8 8 8 8 9 9 9 9 9
10 10 10 9 9 9 9 9 9 8 8 8 8 8 8 8 8 8 8 8 8 8 8 8 8 8 8 7 7 7 7 7 7 7 8 7 8 7 8 8 8 8 8
Wind_Speed
2 1 1 1 2 3 3 2 2 3 2 3 4 5 4 4 4 4 4 7 8 8 8 8 8 8 8 7 8 8 8 7 6 6 6 6 6 6 6 5 5 5 5
3 2 2 2 2 2 2 3 3 3 2 2 3 3 3 4 4 4 4 5 6 7 7 7 7 7 7 7 7 7 7 7 6 5 6 6 6 6 6 6 5 5 5
4 3 3 2 2 3 4 4 4 3 3 3 3 2 3 3 3 3 4 4 4 5 6 6 6 6 6 6 7 6 6 7 6 5 5 5 6 6 5 6 6 5 5
7 5 3 2 3 4 4 3 3 3 3 3 2 2 2 2 3 3 3 3 3 4 4 6 6 6 5 6 6 6 6 6 6 6 6 5 5 5 5 6 6 6 6
7 6 4 3 4 4 3 3 3 2 2 2 2 2 2 1 1 3 3 3 3 4 4 5 6 6 5 6 6 6 5 6 5 5 5 5 4 5 5 5 6 6 6
7 6 4 4 5 4 4 3 3 3 2 1 2 3 3 2 2 2 2 2 3 3 4 4 5 4 5 5 6 6 6 6 5 5 4 4 4 4 5 5 5 5 6
6 6 4 3 4 4 3 3 2 3 2 2 3 3 4 4 3 2 2 2 2 2 3 3 4 3 3 4 5 6 5 6 5 4 4 4 4 4 4 4 4 5 5
5 5 4 3 3 3 4 4 3 2 2 2 2 2 3 4 4 3 2 2 2 2 2 2 3 3 3 3 3 5 4 4 5 5 4 3 3 3 3 3 3 4 5
4 5 5 4 3 3 2 2 2 3 1 2 2 3 2 2 2 3 3 3 2 2 1 2 3 2 2 2 2 2 3 3 3 4 4 4 3 3 3 3 3 3 4
3 4 4 4 3 2 2 1 2 2 2 0 1 1 2 3 2 1 3 3 3 2 1 1 2 2 2 2 1 1 2 2 2 2 3 3 4 3 3 2 2 2 3
2 3 4 3 2 2 2 1 2 2 2 2 1 1 2 2 2 2 1 3 3 2 1 1 1 1 1 1 1 1 1 2 1 1 2 2 3 3 3 2 1 1 2
0 1 3 3 2 2 2 2 2 2 2 2 1 1 2 2 1 2 1 1 2 2 2 1 1 0 0 1 1 1 0 1 1 1 1 2 2 2 2 2 1 1 1
1 2 2 2 2 2 2 2 2 1 2 2 2 1 1 1 2 2 2 1 1 2 2 1 1 0 1 1 0 0 1 0 1 0 1 1 1 2 2 2 1 1 0
4 4 3 2 2 2 2 2 2 1 1 1 1 2 1 1 1 2 2 2 0 1 2 2 2 1 2 2 2 2 1 1 2 1 0 0 1 1 2 2 2 1 1
4 4 4 4 3 3 2 3 2 1 1 1 1 1 1 1 1 1 1 2 3 2 2 3 2 2 2 2 2 2 1 2 2 2 2 2 1 1 1 2 2 2 1
4 4 4 4 3 3 3 3 2 1 1 1 1 1 0 0 1 1 1 1 2 3 2 2 3 2 2 2 2 2 2 2 3 3 3 3 3 2 2 1 1 1 1
5 5 5 5 4 4 3 3 2 2 2 2 1 1 1 1 1 1 1 1 1 2 2 3 2 2 1 2 2 2 3 3 3 4 4 4 4 4 3 3 2 2 1
5 6 6 5 5 5 5 5 4 3 3 3 3 2 3 2 1 1 1 1 1 2 2 2 2 1 2 2 2 1 2 3 3 4 4 4 4 4 4 4 4 4 3
5 5 5 6 6 6 5 5 5 4 4 4 4 4 4 3 3 2 2 2 2 2 2 2 2 2 2 1 1 2 2 2 3 4 4 5 5 5 4 4 4 5 5
5 5 5 6 6 6 6 5 5 5 4 4 4 4 4 5 5 4 4 4 3 2 2 2 2 2 2 2 1 1 2 2 2 3 3 4 5 5 5 4 5 5 5
5 5 4 4 4 5 5 5 5 5 4 4 4 4 5 5 6 5 4 4 4 3 2 2 2 2 2 1 2 2 3 2 2 2 2 3 3 3 4 5 6 6 5
4 3 4 4 4 4 5 6 5 4 4 5 4 4 5 5 6 7 7 7 6 5 5 4 3 3 4 4 3 2 2 1 3 2 2 3 2 3 4 5 6 6 6
4 4 4 4 4 5 6 6 6 4 4 4 5 4 4 4 5 4 5 5 5 6 7 6 5 6 5 5 4 3 3 3 4 3 1 3 2 3 4 5 6 6 6
5 4 4 4 3 4 4 5 4 3 3 4 4 5 5 5 4 4 4 4 4 5 6 6 6 7 6 5 6 5 5 3 2 2 2 3 2 2 3 4 5 5 5
4 4 4 4 4 4 4 5 4 3 3 4 4 4 4 5 5 5 4 4 4 5 5 6 6 6 6 6 4 2 2 2 2 3 2 2 2 1 2 2 3 4 4
4 4 3 4 4 4 4 4 4 2 2 3 2 3 5 5 5 5 5 5 5 5 3 3 3 3 4 5 5 5 5 4 2 2 2 2 1 0 1 2 2 2 3
Wind_Direction
111 106 99 83 57 63 64 65 63 59 50 64 85 102 98 96 101 96 85 83 83 86 85 82 80 76 70 66 69 68 65 60 67 68 66 68 64 61 61 57 52 50 49
110 100 83 66 53 60 74 82 77 68 54 64 74 96 110 109 104 106 97 86 80 80 82 84 83 78 74 66 67 66 63 60 62 68 65 66 64 60 59 60 59 58 54
109 110 94 70 57 72 79 70 62 60 60 56 49 62 95 106 111 109 109 94 83 78 74 75 79 80 77 68 64 66 63 59 61 66 67 66 63 60 62 61 58 55 53
100 97 84 73 76 83 74 73 62 56 47 47 41 33 54 92 108 115 115 101 88 82 72 66 68 78 74 66 61 65 67 60 59 63 65 64 62 59 66 63 56 53 49
92 93 83 74 81 75 68 75 64 71 59 35 32 37 32 45 88 113 108 109 102 93 83 69 64 65 65 63 55 58 60 58 57 60 61 62 64 67 68 67 63 56 49
92 91 83 71 76 70 58 62 65 49 55 31 40 34 21 17 51 88 108 115 108 95 86 74 66 56 55 58 51 53 56 52 59 60 60 59 63 70 71 66 64 59 53
96 92 81 75 72 76 74 67 64 53 31 37 57 25 10 19 32 26 45 88 82 81 86 85 81 66 51 56 51 47 52 50 49 50 56 62 58 64 75 69 66 62 53
101 102 98 95 83 79 67 60 73 74 20 39 96 81 20 3 2 12 17 56 66 69 63 77 92 85 70 67 53 47 47 47 38 36 53 65 58 61 75 75 71 63 53
107 108 113 106 98 94 93 81 96 111 102 7 67 127 133 208 317 345 2 19 38 63 54 70 82 96 97 87 69 46 40 35 31 37 41 47 51 50 53 64 62 55 53
113 119 119 113 109 106 110 104 89 101 118 85 11 51 130 153 154 323 339 351 8 35 41 74 76 87 109 106 107 58 42 18 27 37 35 40 40 38 45 65 65 57 53
116 123 125 123 120 119 138 115 89 91 109 135 141 106 77 67 95 144 267 323 349 347 6 55 90 95 107 131 156 163 66 22 36 39 36 36 31 33 35 52 64 61 60
180 135 131 132 136 142 165 151 127 111 105 106 103 104 127 128 148 141 181 260 297 309 343 359 19 97 122 114 139 152 129 42 56 46 45 35 22 24 26 30 48 56 62
202 216 166 155 158 170 170 143 128 119 116 119 125 130 132 162 166 157 152 207 267 300 328 333 299 277 228 181 241 252 247 201 162 114 45 23 13 10 9 9 2 344 359
201 198 187 175 168 166 158 148 146 156 128 142 145 142 136 185 159 155 161 162 165 322 328 294 304 287 260 227 230 244 249 219 197 210 245 334 5 11 9 357 343 328 307
199 188 184 180 174 166 171 161 149 177 149 163 181 162 152 211 158 157 146 160 164 199 271 282 288 282 271 239 238 228 234 235 219 228 239 252 262 291 322 344 344 334 308
196 184 187 189 188 181 177 165 154 202 167 205 190 155 174 220 178 165 155 150 157 176 226 257 256 271 275 267 260 239 244 256 251 243 243 236 239 251 244 249 298 337 305
192 193 194 191 188 188 188 176 187 191 190 221 230 186 224 210 194 198 165 155 156 155 217 272 275 291 271 272 296 274 265 260 263 251 243 244 247 243 240 238 234 212 205
201 200 195 194 196 196 194 192 203 204 202 212 226 218 232 218 214 231 195 204 209 192 189 247 279 297 273 256 259 262 283 269 263 255 246 251 253 247 244 238 225 220 221
205 204 197 198 201 202 200 202 204 208 212 217 220 221 228 206 216 231 220 222 229 218 188 205 258 269 273 271 290 288 289 300 282 267 262 258 251 251 245 242 237 236 233
200 203 205 206 206 205 204 205 205 211 219 226 227 225 223 214 217 221 226 222 214 206 201 209 249 267 267 266 224 251 289 285 282 282 282 267 255 251 249 250 245 242 238
206 202 201 207 206 205 209 203 208 214 214 223 233 236 229 228 230 224 224 217 204 205 211 223 243 262 262 255 237 237 243 268 280 259 270 270 257 249 253 255 247 240 238
198 191 201 206 213 226 222 210 208 208 213 216 230 241 240 239 241 238 235 224 205 201 210 216 229 236 250 241 236 227 224 251 276 259 220 259 225 240 251 249 245 241 234
195 200 209 211 223 231 225 219 219 211 217 224 227 232 244 248 241 241 238 233 231 230 220 214 221 232 237 231 221 226 221 221 242 245 193 253 242 247 261 260 249 241 239
195 202 208 210 219 239 229 224 221 207 218 231 231 227 233 246 238 226 220 229 241 250 245 232 228 232 234 229 216 216 217 226 274 264 188 233 255 259 276 267 256 245 245
200 203 198 199 211 243 240 227 212 200 224 241 241 239 231 236 247 228 211 224 245 260 261 252 245 248 255 248 224 184 180 186 254 265 212 209 246 280 287 269 255 244 244
202 198 201 205 210 230 246 234 213 193 222 247 254 253 243 240 248 225 209 216 238 252 249 255 264 272 268 257 237 208 197 197 209 251 235 194 220 251 300 282 265 260 249
Height
1529 1529 1529 1529 1529 1529 1529 1529 1529 1529 1529 1529 1529 1529 1529 1529 1529 1529 1528 1528 1528 1527 1526 1526 1525 1525 1524 1523 1523 1522 1522 1521 1521 1521 1520 1520 1520 1519 1519 1518 1518 1517 1515
1530 1530 1530 1530 1530 1530 1530 1530 1530 1530 1530 1530 1530 1530 1530 1530 1530 1530 1529 1529 1528 1528 1527 1526 1526 1525 1524 1524 1523 1522 1522 1521 1521 1521 1520 1520 1520 1519 1519 1518 1518 1518 1517
1531 1530 1530 1530 1530 1530 1530 1530 1530 1530 1530 1530 1530 1531 1531 1530 1530 1530 1530 1530 1529 1528 1528 1527 1526 1526 1525 1524 1524 1523 1522 1521 1521 1521 1521 1520 1520 1520 1519 1519 1519 1518 1517
1531 1531 1531 1530 1531 1531 1531 1530 1530 1531 1530 1531 1531 1531 1531 1531 1531 1531 1530 1530 1530 1529 1528 1527 1526 1526 1525 1525 1524 1523 1523 1522 1521 1521 1521 1521 1520 1520 1519 1519 1519 1518 1518
1531 1531 1530 1530 1531 1531 1530 1530 1530 1530 1530 1531 1531 1531 1531 1531 1531 1531 1531 1530 1530 1530 1529 1528 1527 1526 1526 1525 1524 1524 1523 1522 1521 1521 1521 1521 1521 1520 1520 1519 1519 1518 1518
1531 1531 1530 1530 1530 1530 1530 1530 1530 1530 1530 1530 1530 1531 1531 1531 1531 1531 1531 1530 1530 1530 1529 1528 1527 1527 1526 1525 1525 1524 1523 1522 1522 1522 1521 1521 1521 1520 1520 1520 1519 1518 1518
1530 1530 1530 1530 1530 1530 1530 1529 1530 1530 1530 1530 1530 1531 1531 1531 1531 1531 1531 1530 1530 1530 1529 1528 1527 1527 1527 1526 1525 1524 1523 1523 1522 1522 1521 1521 1521 1520 1520 1520 1519 1518 1517
1530 1530 1530 1529 1529 1529 1529 1529 1529 1529 1529 1530 1530 1530 1531 1532 1531 1531 1531 1530 1530 1529 1529 1528 1527 1527 1526 1526 1525 1525 1524 1523 1522 1521 1520 1521 1520 1520 1520 1519 1519 1518 1517
1529 1529 1529 1529 1529 1529 1528 1528 1529 1529 1529 1529 1529 1530 1530 1530 1530 1531 1530 1530 1529 1529 1528 1528 1527 1526 1526 1526 1525 1524 1524 1523 1522 1521 1520 1520 1520 1520 1519 1519 1519 1518 1517
1529 1529 1528 1528 1528 1528 1528 1528 1528 1528 1528 1528 1528 1529 1529 1529 1529 1529 1530 1529 1529 1528 1528 1527 1527 1526 1526 1525 1525 1524 1523 1522 1522 1521 1520 1520 1520 1519 1519 1519 1519 1518 1518
1528 1528 1527 1527 1527 1527 1527 1527 1527 1527 1527 1527 1527 1527 1527 1528 1528 1528 1528 1528 1528 1528 1527 1527 1526 1526 1525 1524 1524 1523 1522 1522 1521 1520 1520 1520 1520 1519 1519 1519 1518 1518 1518
1526 1526 1526 1526 1526 1526 1526 1526 1526 1526 1526 1526 1526 1526 1526 1526 1526 1527 1526 1526 1526 1526 1526 1526 1525 1525 1524 1524 1523 1522 1522 1521 1520 1520 1520 1520 1519 1519 1518 1518 1518 1518 1517
1524 1525 1525 1525 1525 1525 1525 1525 1524 1524 1524 1524 1524 1524 1524 1525 1525 1525 1525 1525 1525 1525 1525 1525 1524 1524 1523 1523 1522 1522 1521 1520 1519 1519 1519 1519 1519 1518 1518 1517 1517 1517 1517
1523 1523 1523 1523 1523 1523 1523 1523 1523 1523 1523 1523 1523 1523 1523 1523 1523 1523 1524 1524 1523 1523 1523 1523 1523 1523 1522 1522 1521 1521 1520 1519 1519 1518 1518 1518 1518 1517 1517 1516 1516 1516 1516
1521 1521 1521 1521 1521 1521 1521 1521 1521 1521 1521 1521 1521 1521 1521 1521 1521 1522 1522 1522 1523 1521 1521 1521 1521 1521 1521 1520 1520 1519 1518 1518 1517 1517 1517 1516 1516 1516 1516 1515 1515 1515 1515
1519 1519 1519 1519 1519 1519 1519 1519 1519 1519 1519 1520 1520 1520 1520 1520 1519 1520 1520 1520 1520 1520 1519 1519 1519 1519 1519 1518 1518 1517 1517 1516 1515 1515 1515 1515 1514 1514 1514 1514 1514 1514 1514
1516 1516 1517 1517 1517 1517 1517 1517 1517 1517 1517 1517 1517 1518 1518 1518 1517 1517 1517 1517 1517 1518 1517 1517 1517 1517 1517 1516 1516 1516 1515 1514 1514 1513 1513 1513 1513 1513 1513 1512 1512 1512 1512
1513 1514 1514 1514 1514 1514 1515 1515 1514 1514 1514 1514 1515 1515 1515 1515 1515 1515 1515 1515 1515 1515 1515 1514 1514 1514 1514 1514 1514 1513 1513 1512 1512 1511 1511 1511 1511 1511 1511 1510 1510 1510 1510
1510 1511 1511 1511 1512 1512 1512 1512 1512 1511 1511 1511 1511 1512 1512 1512 1512 1512 1512 1512 1512 1512 1512 1512 1511 1512 1512 1512 1511 1511 1510 1510 1510 1509 1509 1509 1509 1509 1508 1508 1508 1508 1508
1507 1507 1508 1508 1509 1509 1509 1508 1508 1508 1508 1508 1508 1508 1508 1508 1508 1509 1509 1508 1508 1508 1508 1508 1508 1508 1508 1508 1508 1507 1507 1507 1507 1507 1507 1507 1507 1506 1506 1506 1506 1506 1506
1503 1504 1504 1505 1505 1505 1505 1505 1505 1504 1504 1504 1504 1504 1504 1505 1505 1505 1505 1505 1505 1505 1505 1504 1504 1504 1504 1504 1504 1504 1504 1504 1504 1504 1504 1504 1504 1504 1504 1504 1503 1503 1503
1499 1500 1500 1501 1501 1501 1501 1501 1501 1500 1500 1500 1500 1500 1500 1501 1501 1501 1501 1501 1502 1501 1501 1501 1500 1500 1500 1501 1501 1501 1501 1500 1500 1502 1501 1501 1501 1501 1501 1501 1501 1501 1501
1495 1496 1497 1497 1497 1497 1497 1497 1497 1497 1496 1496 1496 1496 1496 1496 1497 1497 1497 1497 1497 1497 1498 1497 1496 1496 1497 1497 1497 1498 1498 1497 1497 1498 1498 1497 1498 1498 1498 1498 1498 1498 1498
1491 1492 1492 1493 1493 1493 1493 1493 1493 1492 1492 1492 1492 1492 1492 1492 1492 1492 1493 1493 1493 1492 1493 1492 1492 1492 1493 1494 1494 1494 1494 1494 1495 1495 1495 1494 1494 1494 1494 1495 1495 1495 1495
1487 1488 1488 1488 1489 1489 1489 1489 1489 1488 1487 1487 1487 1487 1488 1488 1488 1488 1488 1488 1488 1488 1488 1488 1488 1488 1489 1489 1490 1490 1490 1491 1490 1490 1491 1490 1490 1490 1490 1491 1491 1491 1491
1483 1484 1484 1484 1484 1484 1485 1484 1484 1484 1483 1482 1482 1483 1483 1483 1483 1484 1484 1483 1483 1483 1483 1483 1483 1484 1484 1485 1485 1486 1486 1486 1486 1486 1487 1487 1487 1487 1486 1487 1487 1488 1488